sat.trackr.live / text

‹ back to catalog

STARLINK-32914

NORAD 63086 · 2025-037K

PAYLOAD ACTIVE UNKNOWN

§ Identity

Operator
Country
US
Launch date
2025-02-23
Launch site
AFWTR
Launch vehicle
Mass (kg)
RCS (m²)

Purposes: comms

External: N2YO · Heavens-Above · Gunter

§ Orbital elements

Epoch: 2026-09-20T07:40:36.667776Z

Period
94.09 min
Inclination
70.0008°
Eccentricity
0.0002512
Mean motion
15.30428669 rev/d
Perigee alt
472.8 km
Apogee alt
476.3 km
Semi-major
6,852.7 km
B*
4.2675e-4
RAAN
221.4128°
Arg perigee
294.9843°
Mean anomaly
65.1072°
Rev number
8,781

§ Raw data

STARLINK-329141 63086U 25037K   26263.31986884  .00012484  00000+0  42675-3 0  99912 63086  70.0008 221.4128 0002512 294.9843  65.1072 15.30428669 87818

JSON: /api/v1/satellites/63086 · /tle

For live sub-satellite position, see the globe view (requires WebGL).

§ Visibility from observer

Set your observer location to see the next 7 days of passes ≥ 10°. The values pass through the URL so the page stays shareable.

No JS? Fill the form by hand. The geolocation button needs JavaScript.